OneWeb SL0139

operational
NORAD ID: 47261 Int'l Des: 2020-100 Owner: ONEWEB Country: UK Constellation: oneweb
LEOCIRCULARPOLARONEWEB_TYPE

Über OneWeb SL0139

Beschreibung wird geladen...

Live-Position

3D-Globus wird geladen...

Nächste Überflüge

Höhenverlauf

Altitude vs Time

uPlot chart will show altitude changes over time

Zweizeiliger Elementsatz

1 47261U 20100D 25350.15438597 -.00000113 00000-0 -35072-3 0 9997
2 47261 87.8941 27.0144 0001739 95.5831 264.5496 13.12394344240554
Epoch: 16. Dez. 2025 • Age: 24 hours

Aktueller Status

Höhe 1225.1 km
Geschwindigkeit 7.25 km/s
Subsatellitenpunkt 71.77°N, 110.69°W
Startdatum 18. Dez. 2020
Alter 4.9 years
Typ internet

Technische Details

Klassifizierung Payload
Masse 148.00 kg
Trockenmasse 140.00 kg
Gesamtmasse 148.00 kg
Länge 1.30 m
Durchmesser 1.00 m
Spannweite 5.00 m
Form Trapezoid+2 pan
Hersteller ONEWUS
Bus-Typ ARROW
Phasenstatus In Orbit
Besitzer/Staat ONEWEB/UK

Große Konstellationen

Loading constellations...